Home > Weather > Rüsselsheim > Past weeks

Flag for Germany Weather for the Past 2 Weeks in Rüsselsheim, Hesse, Germany

Now
54 °F

Passing clouds.


Feels Like: 51 °F
Forecast: 43 / 61 °F
Wind: 14 mph from North

Location: Wiesbaden Airport

Current Time: Apr 30, 2016 at 7:29:28 PM

Latest Report: Apr 30, 2016 at 6:58 PM


Visibility: N/A

Pressure: 30.01 "Hg

Humidity: 59%

Dew Point: 40 °F

Location of RüsselsheimLocation

Historic Weather in Rüsselsheim — Graph

°F

Rüsselsheim Temperature Yesterday

Maximum temperature yesterday: 56 °F (at 4:58 PM)
Minimum temperature yesterday: 31 °F (at 4:58 AM)
Average temperature yesterday: 45 °F

High & Low Weather Summary for the Past Weeks

 TemperatureHumidityPressure
High67 °F (Apr 21, 5:58 PM)100% (Apr 16, 7:58 AM)30.46 "Hg (Apr 16, 7:58 AM)
Low31 °F (Apr 24, 6:58 AM)27% (Apr 20, 3:58 PM)29.58 "Hg (Apr 26, 1:03 AM)
Average47 °F66%29.97 "Hg
* Reported Apr 15 5:58 PM — Apr 30 5:58 PM, Rüsselsheim, Weather by CustomWeather, © 2016

Note: Actual official high and low records may vary slightly from our data, if they occured in-between our weather recording intervals... More about our weather records

Advertising

Rüsselsheim Weather History for the Previous 24 Hours

Scroll right to see more
 ConditionsComfort  
Time TempWeatherWind HumidityBarometerVisibility
5:58 PM
Sat, Apr 30
56 °FScattered clouds.14 mph56%30.01 "HgN/A
4:58 PM59 °FBroken clouds.14 mph49%30.00 "HgN/A
3:58 PM61 °FBroken clouds.7 mph35%29.99 "HgN/A
2:58 PM59 °FScattered clouds.1 mph39%30.01 "HgN/A
1:58 PM59 °FPartly sunny.5 mph44%30.01 "HgN/A
12:58 PM56 °FMostly cloudy.6 mph47%30.03 "HgN/A
11:58 AM55 °FPassing clouds.5 mph55%30.04 "HgN/A
10:58 AM52 °FScattered clouds.1 mph57%30.04 "HgN/A
9:58 AM48 °FSunny.2 mph67%30.04 "HgN/A
8:58 AM44 °FSunny.No wind76%30.05 "HgN/A
7:58 AM40 °FOvercast.1 mph81%30.06 "HgN/A
6:58 AM37 °FOvercast.No wind87%30.04 "HgN/A
5:58 AM36 °FPassing clouds.No wind93%30.04 "HgN/A
4:58 AM37 °FPassing clouds.2 mph87%30.03 "HgN/A
3:58 AM39 °FPassing clouds.No wind81%30.03 "HgN/A
2:58 AM40 °FPassing clouds.No wind81%30.03 "HgN/A
1:58 AM43 °FOvercast.No wind76%30.03 "HgN/A
12:58 AM45 °FOvercast.2 mph66%30.04 "HgN/A
11:58 PM
Fri, Apr 29
43 °FOvercast.1 mph76%30.03 "HgN/A
10:58 PM48 °FOvercast.2 mph54%30.04 "HgN/A
9:58 PM48 °FPartly cloudy.2 mph54%30.04 "HgN/A
8:58 PM50 °FScattered clouds.2 mph46%30.04 "HgN/A
7:58 PM52 °FPartly sunny.8 mph44%30.04 "HgN/A
Weather by CustomWeather, © 2016

See weather overviewHow to use our weather pages